owner,sensor,date,latitude,longitude,vertical_datum,sea_water_practical_salinity,qcFlag 
COMPS,ioos:station:USF.COMPS:EGK:1,2008-10-01T00:00:00Z,27.6010,-82.7510,1.0,31.17,1111122 
COMPS,ioos:station:USF.COMPS:EGK:1,2008-10-01T00:06:00Z,27.6010,-82.7510,1.0,28.672,1111122 
COMPS,ioos:station:USF.COMPS:EGK:1,2008-10-01T00:12:00Z,27.6010,-82.7510,1.0,28.968,1111122 
COMPS,ioos:station:USF.COMPS:EGK:1,2008-10-01T00:18:00Z,27.6010,-82.7510,1.0,29.133,1111122 
COMPS,ioos:station:USF.COMPS:EGK:1,2008-10-01T00:24:00Z,27.6010,-82.7510,1.0,28.675,1111122 
COMPS,ioos:station:USF.COMPS:EGK:1,2008-10-01T00:30:00Z,27.6010,-82.7510,1.0,28.757,1111122 
COMPS,ioos:station:USF.COMPS:EGK:1,2008-10-01T00:36:00Z,27.6010,-82.7510,1.0,29.2,1111122 
COMPS,ioos:station:USF.COMPS:EGK:1,2008-10-01T00:42:00Z,27.6010,-82.7510,1.0,29.345,1111122 
COMPS,ioos:station:USF.COMPS:EGK:1,2008-10-01T00:48:00Z,27.6010,-82.7510,1.0,30.446,1111122 
COMPS,ioos:station:USF.COMPS:EGK:1,2008-10-01T00:54:00Z,27.6010,-82.7510,1.0,31.075,1111122 
COMPS,ioos:station:USF.COMPS:EGK:1,2008-10-01T01:00:00Z,27.6010,-82.7510,1.0,31.138,1111122 
COMPS,ioos:station:USF.COMPS:EGK:1,2008-10-01T01:06:00Z,27.6010,-82.7510,1.0,31.061,1111122 
COMPS,ioos:station:USF.COMPS:EGK:1,2008-10-01T01:12:00Z,27.6010,-82.7510,1.0,30.739,1111122 
COMPS,ioos:station:USF.COMPS:EGK:1,2008-10-01T01:18:00Z,27.6010,-82.7510,1.0,31.04,1111122 
COMPS,ioos:station:USF.COMPS:EGK:1,2008-10-01T01:24:00Z,27.6010,-82.7510,1.0,31.047,1111122 
COMPS,ioos:station:USF.COMPS:EGK:1,2008-10-01T01:30:00Z,27.6010,-82.7510,1.0,31.123,1111122 
COMPS,ioos:station:USF.COMPS:EGK:1,2008-10-01T01:36:00Z,27.6010,-82.7510,1.0,30.933,1111122 
COMPS,ioos:station:USF.COMPS:EGK:1,2008-10-01T01:42:00Z,27.6010,-82.7510,1.0,30.807,1111122 
COMPS,ioos:station:USF.COMPS:EGK:1,2008-10-01T01:48:00Z,27.6010,-82.7510,1.0,30.512,1111122 
COMPS,ioos:station:USF.COMPS:EGK:1,2008-10-01T01:54:00Z,27.6010,-82.7510,1.0,30.666,1111122 
COMPS,ioos:station:USF.COMPS:EGK:1,2008-10-01T02:00:00Z,27.6010,-82.7510,1.0,30.162,1111122 
COMPS,ioos:station:USF.COMPS:EGK:1,2008-10-01T02:06:00Z,27.6010,-82.7510,1.0,30.581,1111122 
COMPS,ioos:station:USF.COMPS:EGK:1,2008-10-01T02:12:00Z,27.6010,-82.7510,1.0,30.07,1111122 
COMPS,ioos:station:USF.COMPS:EGK:1,2008-10-01T02:18:00Z,27.6010,-82.7510,1.0,29.958,1111122 
COMPS,ioos:station:USF.COMPS:EGK:1,2008-10-01T02:24:00Z,27.6010,-82.7510,1.0,30.168,1111122 
COMPS,ioos:station:USF.COMPS:EGK:1,2008-10-01T02:30:00Z,27.6010,-82.7510,1.0,30.638,1111122 
COMPS,ioos:station:USF.COMPS:EGK:1,2008-10-01T02:36:00Z,27.6010,-82.7510,1.0,30.589,1111122 
COMPS,ioos:station:USF.COMPS:EGK:1,2008-10-01T02:42:00Z,27.6010,-82.7510,1.0,30.596,1111122 
COMPS,ioos:station:USF.COMPS:EGK:1,2008-10-01T02:48:00Z,27.6010,-82.7510,1.0,30.575,1111122 
COMPS,ioos:station:USF.COMPS:EGK:1,2008-10-01T02:54:00Z,27.6010,-82.7510,1.0,30.561,1111122 
COMPS,ioos:station:USF.COMPS:EGK:1,2008-10-01T03:00:00Z,27.6010,-82.7510,1.0,30.534,1111122 
COMPS,ioos:station:USF.COMPS:EGK:1,2008-10-01T03:06:00Z,27.6010,-82.7510,1.0,30.493,1111122 
COMPS,ioos:station:USF.COMPS:EGK:1,2008-10-01T03:12:00Z,27.6010,-82.7510,1.0,30.312,1111122 
COMPS,ioos:station:USF.COMPS:EGK:1,2008-10-01T03:18:00Z,27.6010,-82.7510,1.0,29.907,1111122 
COMPS,ioos:station:USF.COMPS:EGK:1,2008-10-01T03:24:00Z,27.6010,-82.7510,1.0,30.207,1111122 
COMPS,ioos:station:USF.COMPS:EGK:1,2008-10-01T03:30:00Z,27.6010,-82.7510,1.0,30.222,1111122 
COMPS,ioos:station:USF.COMPS:EGK:1,2008-10-01T03:36:00Z,27.6010,-82.7510,1.0,30.139,1111122 
COMPS,ioos:station:USF.COMPS:EGK:1,2008-10-01T03:42:00Z,27.6010,-82.7510,1.0,30.391,1111122 
COMPS,ioos:station:USF.COMPS:EGK:1,2008-10-01T03:48:00Z,27.6010,-82.7510,1.0,30.232,1111122 
COMPS,ioos:station:USF.COMPS:EGK:1,2008-10-01T03:54:00Z,27.6010,-82.7510,1.0,30.282,1111122 
COMPS,ioos:station:USF.COMPS:EGK:1,2008-10-01T04:00:00Z,27.6010,-82.7510,1.0,30.611,1111122 
COMPS,ioos:station:USF.COMPS:EGK:1,2008-10-01T04:06:00Z,27.6010,-82.7510,1.0,30.089,1111122 
COMPS,ioos:station:USF.COMPS:EGK:1,2008-10-01T04:12:00Z,27.6010,-82.7510,1.0,29.777,1111122 
COMPS,ioos:station:USF.COMPS:EGK:1,2008-10-01T04:18:00Z,27.6010,-82.7510,1.0,28.682,1111122 
COMPS,ioos:station:USF.COMPS:EGK:1,2008-10-01T04:24:00Z,27.6010,-82.7510,1.0,27.986,1111122 
COMPS,ioos:station:USF.COMPS:EGK:1,2008-10-01T04:30:00Z,27.6010,-82.7510,1.0,28.262,1111122 
COMPS,ioos:station:USF.COMPS:EGK:1,2008-10-01T04:36:00Z,27.6010,-82.7510,1.0,28.02,1111122 
COMPS,ioos:station:USF.COMPS:EGK:1,2008-10-01T04:42:00Z,27.6010,-82.7510,1.0,28.172,1111122 
COMPS,ioos:station:USF.COMPS:EGK:1,2008-10-01T04:48:00Z,27.6010,-82.7510,1.0,28.192,1111122 
COMPS,ioos:station:USF.COMPS:EGK:1,2008-10-01T04:54:00Z,27.6010,-82.7510,1.0,28.31,1111122 
COMPS,ioos:station:USF.COMPS:EGK:1,2008-10-01T05:00:00Z,27.6010,-82.7510,1.0,28.743,1111122 
COMPS,ioos:station:USF.COMPS:EGK:1,2008-10-01T05:06:00Z,27.6010,-82.7510,1.0,28.558,1111122 
COMPS,ioos:station:USF.COMPS:EGK:1,2008-10-01T05:12:00Z,27.6010,-82.7510,1.0,28.673,1111122 
COMPS,ioos:station:USF.COMPS:EGK:1,2008-10-01T05:18:00Z,27.6010,-82.7510,1.0,28.698,1111122 
COMPS,ioos:station:USF.COMPS:EGK:1,2008-10-01T05:24:00Z,27.6010,-82.7510,1.0,28.609,1111122 
COMPS,ioos:station:USF.COMPS:EGK:1,2008-10-01T05:30:00Z,27.6010,-82.7510,1.0,29.24,1111122 
COMPS,ioos:station:USF.COMPS:EGK:1,2008-10-01T05:36:00Z,27.6010,-82.7510,1.0,31.177,1111122 
COMPS,ioos:station:USF.COMPS:EGK:1,2008-10-01T05:42:00Z,27.6010,-82.7510,1.0,31.079,1111122 
COMPS,ioos:station:USF.COMPS:EGK:1,2008-10-01T05:48:00Z,27.6010,-82.7510,1.0,30.925,1111122 
COMPS,ioos:station:USF.COMPS:EGK:1,2008-10-01T05:54:00Z,27.6010,-82.7510,1.0,30.883,1111122 
COMPS,ioos:station:USF.COMPS:EGK:1,2008-10-01T06:00:00Z,27.6010,-82.7510,1.0,30.904,1111122 
COMPS,ioos:station:USF.COMPS:EGK:1,2008-10-01T06:06:00Z,27.6010,-82.7510,1.0,30.883,1111122 
COMPS,ioos:station:USF.COMPS:EGK:1,2008-10-01T06:12:00Z,27.6010,-82.7510,1.0,30.924,1111122 
COMPS,ioos:station:USF.COMPS:EGK:1,2008-10-01T06:18:00Z,27.6010,-82.7510,1.0,30.749,1111122 
COMPS,ioos:station:USF.COMPS:EGK:1,2008-10-01T06:24:00Z,27.6010,-82.7510,1.0,30.826,1111122 
COMPS,ioos:station:USF.COMPS:EGK:1,2008-10-01T06:30:00Z,27.6010,-82.7510,1.0,30.805,1111122 
COMPS,ioos:station:USF.COMPS:EGK:1,2008-10-01T06:36:00Z,27.6010,-82.7510,1.0,30.24,1111122 
COMPS,ioos:station:USF.COMPS:EGK:1,2008-10-01T06:42:00Z,27.6010,-82.7510,1.0,30.728,1111122 
COMPS,ioos:station:USF.COMPS:EGK:1,2008-10-01T06:48:00Z,27.6010,-82.7510,1.0,29.162,1111122 
COMPS,ioos:station:USF.COMPS:EGK:1,2008-10-01T06:54:00Z,27.6010,-82.7510,1.0,29.619,1111122 
COMPS,ioos:station:USF.COMPS:EGK:1,2008-10-01T07:00:00Z,27.6010,-82.7510,1.0,30.371,1111122 
COMPS,ioos:station:USF.COMPS:EGK:1,2008-10-01T07:06:00Z,27.6010,-82.7510,1.0,29.25,1111122 
COMPS,ioos:station:USF.COMPS:EGK:1,2008-10-01T07:12:00Z,27.6010,-82.7510,1.0,31.252,1111122 
COMPS,ioos:station:USF.COMPS:EGK:1,2008-10-01T07:18:00Z,27.6010,-82.7510,1.0,31.028,1111122 
COMPS,ioos:station:USF.COMPS:EGK:1,2008-10-01T07:24:00Z,27.6010,-82.7510,1.0,31.047,1111122 
COMPS,ioos:station:USF.COMPS:EGK:1,2008-10-01T07:30:00Z,27.6010,-82.7510,1.0,30.88,1111122 
COMPS,ioos:station:USF.COMPS:EGK:1,2008-10-01T07:36:00Z,27.6010,-82.7510,1.0,30.936,1111122 
COMPS,ioos:station:USF.COMPS:EGK:1,2008-10-01T07:42:00Z,27.6010,-82.7510,1.0,30.937,1111122 
COMPS,ioos:station:USF.COMPS:EGK:1,2008-10-01T07:48:00Z,27.6010,-82.7510,1.0,30.874,1111122 
COMPS,ioos:station:USF.COMPS:EGK:1,2008-10-01T07:54:00Z,27.6010,-82.7510,1.0,30.986,1111122 
COMPS,ioos:station:USF.COMPS:EGK:1,2008-10-01T08:00:00Z,27.6010,-82.7510,1.0,30.87,1111122 
COMPS,ioos:station:USF.COMPS:EGK:1,2008-10-01T08:06:00Z,27.6010,-82.7510,1.0,30.833,1111122 
COMPS,ioos:station:USF.COMPS:EGK:1,2008-10-01T08:12:00Z,27.6010,-82.7510,1.0,30.763,1111122 
COMPS,ioos:station:USF.COMPS:EGK:1,2008-10-01T08:18:00Z,27.6010,-82.7510,1.0,30.626,1111122 
COMPS,ioos:station:USF.COMPS:EGK:1,2008-10-01T08:24:00Z,27.6010,-82.7510,1.0,30.694,1111122 
COMPS,ioos:station:USF.COMPS:EGK:1,2008-10-01T08:30:00Z,27.6010,-82.7510,1.0,29.41,1111122 
COMPS,ioos:station:USF.COMPS:EGK:1,2008-10-01T08:36:00Z,27.6010,-82.7510,1.0,29.183,1111122 
COMPS,ioos:station:USF.COMPS:EGK:1,2008-10-01T08:42:00Z,27.6010,-82.7510,1.0,29.8,1111122 
COMPS,ioos:station:USF.COMPS:EGK:1,2008-10-01T08:48:00Z,27.6010,-82.7510,1.0,30.715,1111122 
COMPS,ioos:station:USF.COMPS:EGK:1,2008-10-01T08:54:00Z,27.6010,-82.7510,1.0,30.744,1111122 
COMPS,ioos:station:USF.COMPS:EGK:1,2008-10-01T09:00:00Z,27.6010,-82.7510,1.0,29.916,1111122 
COMPS,ioos:station:USF.COMPS:EGK:1,2008-10-01T09:06:00Z,27.6010,-82.7510,1.0,28.952,1111122 
COMPS,ioos:station:USF.COMPS:EGK:1,2008-10-01T09:12:00Z,27.6010,-82.7510,1.0,28.881,1111122 
COMPS,ioos:station:USF.COMPS:EGK:1,2008-10-01T09:18:00Z,27.6010,-82.7510,1.0,28.457,1111122 
COMPS,ioos:station:USF.COMPS:EGK:1,2008-10-01T09:24:00Z,27.6010,-82.7510,1.0,29.915,1111122 
COMPS,ioos:station:USF.COMPS:EGK:1,2008-10-01T09:30:00Z,27.6010,-82.7510,1.0,29.558,1111122 
COMPS,ioos:station:USF.COMPS:EGK:1,2008-10-01T09:36:00Z,27.6010,-82.7510,1.0,29.579,1111122 
COMPS,ioos:station:USF.COMPS:EGK:1,2008-10-01T09:42:00Z,27.6010,-82.7510,1.0,29.433,1111122 
COMPS,ioos:station:USF.COMPS:EGK:1,2008-10-01T09:48:00Z,27.6010,-82.7510,1.0,29.88,1111122 
COMPS,ioos:station:USF.COMPS:EGK:1,2008-10-01T09:54:00Z,27.6010,-82.7510,1.0,29.971,1111122 
COMPS,ioos:station:USF.COMPS:EGK:1,2008-10-01T10:00:00Z,27.6010,-82.7510,1.0,29.915,1111122 
COMPS,ioos:station:USF.COMPS:EGK:1,2008-10-01T10:06:00Z,27.6010,-82.7510,1.0,30.125,1111122 
COMPS,ioos:station:USF.COMPS:EGK:1,2008-10-01T10:12:00Z,27.6010,-82.7510,1.0,30.048,1111122 
COMPS,ioos:station:USF.COMPS:EGK:1,2008-10-01T10:18:00Z,27.6010,-82.7510,1.0,29.859,1111122 
COMPS,ioos:station:USF.COMPS:EGK:1,2008-10-01T10:24:00Z,27.6010,-82.7510,1.0,28.825,1111122 
COMPS,ioos:station:USF.COMPS:EGK:1,2008-10-01T10:30:00Z,27.6010,-82.7510,1.0,28.798,1111122 
COMPS,ioos:station:USF.COMPS:EGK:1,2008-10-01T10:36:00Z,27.6010,-82.7510,1.0,28.535,1111122 
COMPS,ioos:station:USF.COMPS:EGK:1,2008-10-01T10:42:00Z,27.6010,-82.7510,1.0,28.726,1111122 
COMPS,ioos:station:USF.COMPS:EGK:1,2008-10-01T10:48:00Z,27.6010,-82.7510,1.0,29.779,1111122 
COMPS,ioos:station:USF.COMPS:EGK:1,2008-10-01T10:54:00Z,27.6010,-82.7510,1.0,30.895,1111122 
COMPS,ioos:station:USF.COMPS:EGK:1,2008-10-01T11:00:00Z,27.6010,-82.7510,1.0,30.466,1111122 
COMPS,ioos:station:USF.COMPS:EGK:1,2008-10-01T11:06:00Z,27.6010,-82.7510,1.0,29.452,1111122 
COMPS,ioos:station:USF.COMPS:EGK:1,2008-10-01T11:12:00Z,27.6010,-82.7510,1.0,30.637,1111122 
COMPS,ioos:station:USF.COMPS:EGK:1,2008-10-01T11:18:00Z,27.6010,-82.7510,1.0,31.045,1111122 
COMPS,ioos:station:USF.COMPS:EGK:1,2008-10-01T11:24:00Z,27.6010,-82.7510,1.0,31.037,1111122 
COMPS,ioos:station:USF.COMPS:EGK:1,2008-10-01T11:30:00Z,27.6010,-82.7510,1.0,31.051,1111122 
COMPS,ioos:station:USF.COMPS:EGK:1,2008-10-01T11:36:00Z,27.6010,-82.7510,1.0,30.98,1111122 
COMPS,ioos:station:USF.COMPS:EGK:1,2008-10-01T11:42:00Z,27.6010,-82.7510,1.0,30.945,1111122 
COMPS,ioos:station:USF.COMPS:EGK:1,2008-10-01T11:48:00Z,27.6010,-82.7510,1.0,30.952,1111122 
COMPS,ioos:station:USF.COMPS:EGK:1,2008-10-01T11:54:00Z,27.6010,-82.7510,1.0,30.874,1111122 
COMPS,ioos:station:USF.COMPS:EGK:1,2008-10-01T12:00:00Z,27.6010,-82.7510,1.0,30.867,1111122 
COMPS,ioos:station:USF.COMPS:EGK:1,2008-10-01T12:06:00Z,27.6010,-82.7510,1.0,30.895,1111122 
COMPS,ioos:station:USF.COMPS:EGK:1,2008-10-01T12:12:00Z,27.6010,-82.7510,1.0,30.867,1111122 
COMPS,ioos:station:USF.COMPS:EGK:1,2008-10-01T12:18:00Z,27.6010,-82.7510,1.0,30.839,1111122 
COMPS,ioos:station:USF.COMPS:EGK:1,2008-10-01T12:24:00Z,27.6010,-82.7510,1.0,30.846,1111122 
COMPS,ioos:station:USF.COMPS:EGK:1,2008-10-01T12:30:00Z,27.6010,-82.7510,1.0,29.765,1111122 
COMPS,ioos:station:USF.COMPS:EGK:1,2008-10-01T12:36:00Z,27.6010,-82.7510,1.0,30.932,1111122 
COMPS,ioos:station:USF.COMPS:EGK:1,2008-10-01T12:42:00Z,27.6010,-82.7510,1.0,30.897,1111122 
COMPS,ioos:station:USF.COMPS:EGK:1,2008-10-01T12:48:00Z,27.6010,-82.7510,1.0,30.848,1111122 
COMPS,ioos:station:USF.COMPS:EGK:1,2008-10-01T12:54:00Z,27.6010,-82.7510,1.0,30.665,1111122 
COMPS,ioos:station:USF.COMPS:EGK:1,2008-10-01T13:00:00Z,27.6010,-82.7510,1.0,30.279,1111122 
COMPS,ioos:station:USF.COMPS:EGK:1,2008-10-01T13:06:00Z,27.6010,-82.7510,1.0,30.047,1111122 
COMPS,ioos:station:USF.COMPS:EGK:1,2008-10-01T13:12:00Z,27.6010,-82.7510,1.0,29.872,1111122 
COMPS,ioos:station:USF.COMPS:EGK:1,2008-10-01T13:18:00Z,27.6010,-82.7510,1.0,29.836,1111122 
COMPS,ioos:station:USF.COMPS:EGK:1,2008-10-01T13:24:00Z,27.6010,-82.7510,1.0,29.801,1111122 
COMPS,ioos:station:USF.COMPS:EGK:1,2008-10-01T13:30:00Z,27.6010,-82.7510,1.0,29.731,1111122 
COMPS,ioos:station:USF.COMPS:EGK:1,2008-10-01T13:36:00Z,27.6010,-82.7510,1.0,29.41,1111122 
COMPS,ioos:station:USF.COMPS:EGK:1,2008-10-01T13:42:00Z,27.6010,-82.7510,1.0,29.417,1111122 
COMPS,ioos:station:USF.COMPS:EGK:1,2008-10-01T13:48:00Z,27.6010,-82.7510,1.0,29.312,1111122 
COMPS,ioos:station:USF.COMPS:EGK:1,2008-10-01T13:54:00Z,27.6010,-82.7510,1.0,29.27,1111122 
COMPS,ioos:station:USF.COMPS:EGK:1,2008-10-01T14:00:00Z,27.6010,-82.7510,1.0,29.236,1111122 
COMPS,ioos:station:USF.COMPS:EGK:1,2008-10-01T14:06:00Z,27.6010,-82.7510,1.0,29.139,1111122 
COMPS,ioos:station:USF.COMPS:EGK:1,2008-10-01T14:12:00Z,27.6010,-82.7510,1.0,29.146,1111122 
COMPS,ioos:station:USF.COMPS:EGK:1,2008-10-01T14:18:00Z,27.6010,-82.7510,1.0,29.146,1111122 
COMPS,ioos:station:USF.COMPS:EGK:1,2008-10-01T14:24:00Z,27.6010,-82.7510,1.0,29.084,1111122 
COMPS,ioos:station:USF.COMPS:EGK:1,2008-10-01T14:30:00Z,27.6010,-82.7510,1.0,28.98,1111122 
COMPS,ioos:station:USF.COMPS:EGK:1,2008-10-01T14:36:00Z,27.6010,-82.7510,1.0,29.119,1111122 
COMPS,ioos:station:USF.COMPS:EGK:1,2008-10-01T14:42:00Z,27.6010,-82.7510,1.0,29.142,1111122 
COMPS,ioos:station:USF.COMPS:EGK:1,2008-10-01T14:48:00Z,27.6010,-82.7510,1.0,29.239,1111122 
COMPS,ioos:station:USF.COMPS:EGK:1,2008-10-01T14:54:00Z,27.6010,-82.7510,1.0,29.17,1111122 
COMPS,ioos:station:USF.COMPS:EGK:1,2008-10-01T15:00:00Z,27.6010,-82.7510,1.0,27.892,1111122 
COMPS,ioos:station:USF.COMPS:EGK:1,2008-10-01T15:06:00Z,27.6010,-82.7510,1.0,27.051,1111122 
COMPS,ioos:station:USF.COMPS:EGK:1,2008-10-01T15:12:00Z,27.6010,-82.7510,1.0,26.726,1111122 
COMPS,ioos:station:USF.COMPS:EGK:1,2008-10-01T15:18:00Z,27.6010,-82.7510,1.0,26.769,1111122 
COMPS,ioos:station:USF.COMPS:EGK:1,2008-10-01T15:24:00Z,27.6010,-82.7510,1.0,26.627,1111122 
COMPS,ioos:station:USF.COMPS:EGK:1,2008-10-01T15:30:00Z,27.6010,-82.7510,1.0,26.686,1111122 
COMPS,ioos:station:USF.COMPS:EGK:1,2008-10-01T15:36:00Z,27.6010,-82.7510,1.0,26.642,1111122 
COMPS,ioos:station:USF.COMPS:EGK:1,2008-10-01T15:42:00Z,27.6010,-82.7510,1.0,26.634,1111122 
COMPS,ioos:station:USF.COMPS:EGK:1,2008-10-01T15:48:00Z,27.6010,-82.7510,1.0,26.696,1111122 
COMPS,ioos:station:USF.COMPS:EGK:1,2008-10-01T15:54:00Z,27.6010,-82.7510,1.0,26.636,1111122 
COMPS,ioos:station:USF.COMPS:EGK:1,2008-10-01T16:00:00Z,27.6010,-82.7510,1.0,27.037,1111122 
COMPS,ioos:station:USF.COMPS:EGK:1,2008-10-01T16:06:00Z,27.6010,-82.7510,1.0,26.868,1111122 
COMPS,ioos:station:USF.COMPS:EGK:1,2008-10-01T16:12:00Z,27.6010,-82.7510,1.0,27.283,1111122 
COMPS,ioos:station:USF.COMPS:EGK:1,2008-10-01T16:18:00Z,27.6010,-82.7510,1.0,27.49,1111122 
COMPS,ioos:station:USF.COMPS:EGK:1,2008-10-01T16:24:00Z,27.6010,-82.7510,1.0,27.553,1111122 
COMPS,ioos:station:USF.COMPS:EGK:1,2008-10-01T16:30:00Z,27.6010,-82.7510,1.0,27.788,1111122 
COMPS,ioos:station:USF.COMPS:EGK:1,2008-10-01T16:36:00Z,27.6010,-82.7510,1.0,27.505,1111122 
COMPS,ioos:station:USF.COMPS:EGK:1,2008-10-01T16:42:00Z,27.6010,-82.7510,1.0,27.803,1111122 
COMPS,ioos:station:USF.COMPS:EGK:1,2008-10-01T16:48:00Z,27.6010,-82.7510,1.0,27.688,1111122 
COMPS,ioos:station:USF.COMPS:EGK:1,2008-10-01T16:54:00Z,27.6010,-82.7510,1.0,27.999,1111122 
COMPS,ioos:station:USF.COMPS:EGK:1,2008-10-01T17:00:00Z,27.6010,-82.7510,1.0,27.496,1111122 
COMPS,ioos:station:USF.COMPS:EGK:1,2008-10-01T17:06:00Z,27.6010,-82.7510,1.0,27.717,1111122 
COMPS,ioos:station:USF.COMPS:EGK:1,2008-10-01T17:12:00Z,27.6010,-82.7510,1.0,27.72,1111122 
COMPS,ioos:station:USF.COMPS:EGK:1,2008-10-01T17:18:00Z,27.6010,-82.7510,1.0,27.956,1111122 
COMPS,ioos:station:USF.COMPS:EGK:1,2008-10-01T17:24:00Z,27.6010,-82.7510,1.0,27.637,1111122 
COMPS,ioos:station:USF.COMPS:EGK:1,2008-10-01T17:30:00Z,27.6010,-82.7510,1.0,27.513,1111122 
COMPS,ioos:station:USF.COMPS:EGK:1,2008-10-01T17:36:00Z,27.6010,-82.7510,1.0,27.503,1111122 
COMPS,ioos:station:USF.COMPS:EGK:1,2008-10-01T17:42:00Z,27.6010,-82.7510,1.0,27.3,1111122 
COMPS,ioos:station:USF.COMPS:EGK:1,2008-10-01T17:48:00Z,27.6010,-82.7510,1.0,27.571,1111122 
COMPS,ioos:station:USF.COMPS:EGK:1,2008-10-01T17:54:00Z,27.6010,-82.7510,1.0,27.75,1111122 
COMPS,ioos:station:USF.COMPS:EGK:1,2008-10-01T18:00:00Z,27.6010,-82.7510,1.0,27.772,1111122 
COMPS,ioos:station:USF.COMPS:EGK:1,2008-10-01T18:06:00Z,27.6010,-82.7510,1.0,27.832,1111122 
COMPS,ioos:station:USF.COMPS:EGK:1,2008-10-01T18:12:00Z,27.6010,-82.7510,1.0,27.605,1111122 
COMPS,ioos:station:USF.COMPS:EGK:1,2008-10-01T18:18:00Z,27.6010,-82.7510,1.0,27.667,1111122 
COMPS,ioos:station:USF.COMPS:EGK:1,2008-10-01T18:24:00Z,27.6010,-82.7510,1.0,27.497,1111122 
COMPS,ioos:station:USF.COMPS:EGK:1,2008-10-01T18:30:00Z,27.6010,-82.7510,1.0,27.381,1111122 
COMPS,ioos:station:USF.COMPS:EGK:1,2008-10-01T18:36:00Z,27.6010,-82.7510,1.0,30.237,1111122 
COMPS,ioos:station:USF.COMPS:EGK:1,2008-10-01T18:42:00Z,27.6010,-82.7510,1.0,30.189,1111122 
COMPS,ioos:station:USF.COMPS:EGK:1,2008-10-01T18:48:00Z,27.6010,-82.7510,1.0,30.047,1111122 
COMPS,ioos:station:USF.COMPS:EGK:1,2008-10-01T18:54:00Z,27.6010,-82.7510,1.0,29.62,1111122 
COMPS,ioos:station:USF.COMPS:EGK:1,2008-10-01T19:00:00Z,27.6010,-82.7510,1.0,29.623,1111122 
COMPS,ioos:station:USF.COMPS:EGK:1,2008-10-01T19:06:00Z,27.6010,-82.7510,1.0,29.636,1111122 
COMPS,ioos:station:USF.COMPS:EGK:1,2008-10-01T19:12:00Z,27.6010,-82.7510,1.0,29.527,1111122 
COMPS,ioos:station:USF.COMPS:EGK:1,2008-10-01T19:18:00Z,27.6010,-82.7510,1.0,29.477,1111122 
COMPS,ioos:station:USF.COMPS:EGK:1,2008-10-01T19:24:00Z,27.6010,-82.7510,1.0,29.479,1111122 
COMPS,ioos:station:USF.COMPS:EGK:1,2008-10-01T19:30:00Z,27.6010,-82.7510,1.0,29.284,1111122 
COMPS,ioos:station:USF.COMPS:EGK:1,2008-10-01T19:36:00Z,27.6010,-82.7510,1.0,29.437,1111122 
COMPS,ioos:station:USF.COMPS:EGK:1,2008-10-01T19:42:00Z,27.6010,-82.7510,1.0,29.985,1111122 
COMPS,ioos:station:USF.COMPS:EGK:1,2008-10-01T19:48:00Z,27.6010,-82.7510,1.0,29.97,1111122 
COMPS,ioos:station:USF.COMPS:EGK:1,2008-10-01T19:54:00Z,27.6010,-82.7510,1.0,29.985,1111122 
COMPS,ioos:station:USF.COMPS:EGK:1,2008-10-01T20:00:00Z,27.6010,-82.7510,1.0,29.937,1111122 
COMPS,ioos:station:USF.COMPS:EGK:1,2008-10-01T20:06:00Z,27.6010,-82.7510,1.0,29.756,1111122 
COMPS,ioos:station:USF.COMPS:EGK:1,2008-10-01T20:12:00Z,27.6010,-82.7510,1.0,29.762,1111122 
COMPS,ioos:station:USF.COMPS:EGK:1,2008-10-01T20:18:00Z,27.6010,-82.7510,1.0,29.761,1111122 
COMPS,ioos:station:USF.COMPS:EGK:1,2008-10-01T20:24:00Z,27.6010,-82.7510,1.0,29.749,1111122 
COMPS,ioos:station:USF.COMPS:EGK:1,2008-10-01T20:30:00Z,27.6010,-82.7510,1.0,29.77,1111122 
COMPS,ioos:station:USF.COMPS:EGK:1,2008-10-01T20:36:00Z,27.6010,-82.7510,1.0,29.708,1111122 
COMPS,ioos:station:USF.COMPS:EGK:1,2008-10-01T20:42:00Z,27.6010,-82.7510,1.0,29.708,1111122 
COMPS,ioos:station:USF.COMPS:EGK:1,2008-10-01T20:48:00Z,27.6010,-82.7510,1.0,29.186,1111122 
COMPS,ioos:station:USF.COMPS:EGK:1,2008-10-01T20:54:00Z,27.6010,-82.7510,1.0,29.303,1111122 
COMPS,ioos:station:USF.COMPS:EGK:1,2008-10-01T21:00:00Z,27.6010,-82.7510,1.0,29.833,1111122 
COMPS,ioos:station:USF.COMPS:EGK:1,2008-10-01T21:06:00Z,27.6010,-82.7510,1.0,29.75,1111122 
COMPS,ioos:station:USF.COMPS:EGK:1,2008-10-01T21:12:00Z,27.6010,-82.7510,1.0,29.798,1111122 
COMPS,ioos:station:USF.COMPS:EGK:1,2008-10-01T21:18:00Z,27.6010,-82.7510,1.0,29.756,1111122 
COMPS,ioos:station:USF.COMPS:EGK:1,2008-10-01T21:24:00Z,27.6010,-82.7510,1.0,29.667,1111122 
COMPS,ioos:station:USF.COMPS:EGK:1,2008-10-01T21:30:00Z,27.6010,-82.7510,1.0,29.668,1111122 
COMPS,ioos:station:USF.COMPS:EGK:1,2008-10-01T21:36:00Z,27.6010,-82.7510,1.0,29.588,1111122 
COMPS,ioos:station:USF.COMPS:EGK:1,2008-10-01T21:42:00Z,27.6010,-82.7510,1.0,29.576,1111122 
COMPS,ioos:station:USF.COMPS:EGK:1,2008-10-01T21:48:00Z,27.6010,-82.7510,1.0,29.516,1111122 
COMPS,ioos:station:USF.COMPS:EGK:1,2008-10-01T21:54:00Z,27.6010,-82.7510,1.0,29.301,1111122 
COMPS,ioos:station:USF.COMPS:EGK:1,2008-10-01T22:00:00Z,27.6010,-82.7510,1.0,29.169,1111122 
COMPS,ioos:station:USF.COMPS:EGK:1,2008-10-01T22:06:00Z,27.6010,-82.7510,1.0,29.386,1111122 
COMPS,ioos:station:USF.COMPS:EGK:1,2008-10-01T22:12:00Z,27.6010,-82.7510,1.0,29.571,1111122 
COMPS,ioos:station:USF.COMPS:EGK:1,2008-10-01T22:18:00Z,27.6010,-82.7510,1.0,29.556,1111122 
COMPS,ioos:station:USF.COMPS:EGK:1,2008-10-01T22:24:00Z,27.6010,-82.7510,1.0,29.535,1111122 
COMPS,ioos:station:USF.COMPS:EGK:1,2008-10-01T22:30:00Z,27.6010,-82.7510,1.0,29.473,1111122 
COMPS,ioos:station:USF.COMPS:EGK:1,2008-10-01T22:36:00Z,27.6010,-82.7510,1.0,29.41,1111122 
COMPS,ioos:station:USF.COMPS:EGK:1,2008-10-01T22:42:00Z,27.6010,-82.7510,1.0,29.488,1111122 
COMPS,ioos:station:USF.COMPS:EGK:1,2008-10-01T22:48:00Z,27.6010,-82.7510,1.0,29.469,1111122 
COMPS,ioos:station:USF.COMPS:EGK:1,2008-10-01T22:54:00Z,27.6010,-82.7510,1.0,29.456,1111122 
COMPS,ioos:station:USF.COMPS:EGK:1,2008-10-01T23:00:00Z,27.6010,-82.7510,1.0,29.469,1111122 
COMPS,ioos:station:USF.COMPS:EGK:1,2008-10-01T23:06:00Z,27.6010,-82.7510,1.0,29.456,1111122 
COMPS,ioos:station:USF.COMPS:EGK:1,2008-10-01T23:12:00Z,27.6010,-82.7510,1.0,29.422,1111122 
COMPS,ioos:station:USF.COMPS:EGK:1,2008-10-01T23:18:00Z,27.6010,-82.7510,1.0,29.449,1111122 
COMPS,ioos:station:USF.COMPS:EGK:1,2008-10-01T23:24:00Z,27.6010,-82.7510,1.0,29.415,1111122 
COMPS,ioos:station:USF.COMPS:EGK:1,2008-10-01T23:30:00Z,27.6010,-82.7510,1.0,29.421,1111122 
COMPS,ioos:station:USF.COMPS:EGK:1,2008-10-01T23:36:00Z,27.6010,-82.7510,1.0,29.433,1111122 
COMPS,ioos:station:USF.COMPS:EGK:1,2008-10-01T23:42:00Z,27.6010,-82.7510,1.0,29.425,1111122 
COMPS,ioos:station:USF.COMPS:EGK:1,2008-10-01T23:48:00Z,27.6010,-82.7510,1.0,29.383,1111122 
COMPS,ioos:station:USF.COMPS:EGK:1,2008-10-01T23:54:00Z,27.6010,-82.7510,1.0,29.387,1111122 
COMPS,ioos:station:USF.COMPS:EGK:1,2008-10-02T00:00:00Z,27.6010,-82.7510,1.0,29.245,1111122 
COMPS,ioos:station:USF.COMPS:EGK:1,2008-10-02T00:06:00Z,27.6010,-82.7510,1.0,28.676,1111122 
COMPS,ioos:station:USF.COMPS:EGK:1,2008-10-02T00:12:00Z,27.6010,-82.7510,1.0,28.646,1111122 
COMPS,ioos:station:USF.COMPS:EGK:1,2008-10-02T00:18:00Z,27.6010,-82.7510,1.0,28.374,1111122 
COMPS,ioos:station:USF.COMPS:EGK:1,2008-10-02T00:24:00Z,27.6010,-82.7510,1.0,29.174,1111122 
COMPS,ioos:station:USF.COMPS:EGK:1,2008-10-02T00:30:00Z,27.6010,-82.7510,1.0,29.825,1111122 
COMPS,ioos:station:USF.COMPS:EGK:1,2008-10-02T00:36:00Z,27.6010,-82.7510,1.0,29.693,1111122 
COMPS,ioos:station:USF.COMPS:EGK:1,2008-10-02T00:42:00Z,27.6010,-82.7510,1.0,29.65,1111122 
COMPS,ioos:station:USF.COMPS:EGK:1,2008-10-02T00:48:00Z,27.6010,-82.7510,1.0,29.414,1111122 
COMPS,ioos:station:USF.COMPS:EGK:1,2008-10-02T00:54:00Z,27.6010,-82.7510,1.0,29.035,1111122 
COMPS,ioos:station:USF.COMPS:EGK:1,2008-10-02T01:00:00Z,27.6010,-82.7510,1.0,28.959,1111122 
COMPS,ioos:station:USF.COMPS:EGK:1,2008-10-02T01:06:00Z,27.6010,-82.7510,1.0,29.196,1111122 
COMPS,ioos:station:USF.COMPS:EGK:1,2008-10-02T01:12:00Z,27.6010,-82.7510,1.0,29.158,1111122 
COMPS,ioos:station:USF.COMPS:EGK:1,2008-10-02T01:18:00Z,27.6010,-82.7510,1.0,29.187,1111122 
COMPS,ioos:station:USF.COMPS:EGK:1,2008-10-02T01:24:00Z,27.6010,-82.7510,1.0,29.346,1111122 
COMPS,ioos:station:USF.COMPS:EGK:1,2008-10-02T01:30:00Z,27.6010,-82.7510,1.0,29.305,1111122 
COMPS,ioos:station:USF.COMPS:EGK:1,2008-10-02T01:36:00Z,27.6010,-82.7510,1.0,29.318,1111122 